sat.trackr.live / text

‹ back to catalog

STARLINK-1922

NORAD 46753 · 2020-074Q

PAYLOAD ACTIVE UNKNOWN

§ Identity

Operator
Country
US
Launch date
2020-10-24
Launch site
AFETR
Launch vehicle
Mass (kg)
RCS (m²)

Purposes: comms

External: N2YO · Heavens-Above · Gunter

§ Orbital elements

Epoch: 2026-05-25T00:00:02.000160Z

Period
90.95 min
Inclination
53.0392°
Eccentricity
0.0006838
Mean motion
15.83275323 rev/d
Perigee alt
316.6 km
Apogee alt
325.8 km
Semi-major
6,699.3 km
B*
5.6511e-4
RAAN
264.7002°
Arg perigee
293.6745°
Mean anomaly
57.6298°
Rev number
590

§ Raw data

STARLINK-19221 46753U 20074Q   26145.00002315  .00126057  00000+0  56511-3 0  99982 46753  53.0392 264.7002 0006838 293.6745  57.6298 15.83275323  5901

JSON: /api/v1/satellites/46753 · /tle

For live sub-satellite position, see the globe view (requires WebGL).

§ Visibility from observer

Set your observer location to see the next 7 days of passes ≥ 10°. The values pass through the URL so the page stays shareable.

No JS? Fill the form by hand. The geolocation button needs JavaScript.